Flag for Belgium Weather past 2 weeks in Mons, Belgium

Now
39 °F

Partly cloudy.


Feels Like: 35 °F
Forecast: 37 / 42 °F
Wind: 6 mph from West

Location: Chievres

Current Time: Dec 25, 2014 at 9:41:42 PM

Latest Report: Dec 25, 2014 at 8:54 PM


Visibility: N/A

Pressure: 30.39 "Hg

Humidity: 93%

Dew point: 37 °F

Location of MonsLocation

Historic Weather in Mons — Graph

°F

Mons temperature yesterday

Maximum temperature yesterday: 50 °F (at 1:53 PM)
Minimum temperature yesterday: 41 °F (at 9:25 PM)
Average temperature yesterday: 47 °F

Past Weeks' High & Low Weather Summary

 TemperatureHumidityPressure
High54 °F (Dec 18, 8:25 PM)100% (Dec 12, 2:25 PM)30.51 "Hg (Dec 12, 2:25 PM)
Low32 °F (Dec 14, 4:25 AM)71% (Dec 11, 3:25 PM)29.45 "Hg (Dec 12, 12:25 PM)
Average44 °F89%30.04 "Hg
* Reported Dec 10 8:25 PM — Dec 25 8:25 PM, Mons, Weather by CustomWeather, © 2014

Note: Actual official high and low records may vary slightly from our data, if they occured in-between our weather recording intervals... More about our weather records

Advertising

Mons weather history for previous 24 hours

 ConditionsComfort  
Time TempWeatherWind HumidityBarometerVisibility
8:25 PM
Dec 25
39 °FPassing clouds.6 mph93%30.39 "HgN/A
7:52 PM41 °FPartly cloudy.6 mph87%30.39 "Hg4 mi
7:25 PM41 °FPassing clouds.6 mph87%30.39 "HgN/A
6:25 PM41 °FPartly cloudy.9 mph87%30.42 "HgN/A
5:25 PM39 °FChilly.5 mph93%30.33 "HgN/A
4:25 PM43 °FScattered clouds.13 mph81%30.33 "HgN/A
3:25 PM43 °FBroken clouds.10 mph81%30.30 "HgN/A
3:04 PM45 °FBroken clouds.12 mph81%30.33 "HgN/A
2:25 PM45 °FScattered clouds.13 mph81%30.39 "HgN/A
1:25 PM45 °FScattered clouds.13 mph76%30.30 "HgN/A
12:25 PM43 °FQuite cool.13 mph81%30.36 "HgN/A
11:25 AM41 °FScattered clouds.9 mph87%30.30 "HgN/A
10:25 AM39 °FChilly.8 mph87%30.36 "HgN/A
9:25 AM37 °FChilly.8 mph93%30.30 "HgN/A
8:25 AM37 °FPassing clouds.8 mph87%30.30 "HgN/A
7:25 AM36 °FPassing clouds.7 mph93%30.27 "HgN/A
6:25 AM37 °FChilly.7 mph87%30.24 "HgN/A
5:25 AM39 °FPassing clouds.7 mph81%30.24 "HgN/A
4:25 AM39 °FPassing clouds.7 mph81%30.24 "HgN/A
3:25 AM39 °FPassing clouds.7 mph81%30.24 "HgN/A
2:25 AM39 °FPassing clouds.9 mph81%30.24 "HgN/A
12:25 AM37 °FPassing clouds.7 mph87%30.24 "HgN/A
10:25 PM
Dec 24
41 °FQuite cool.8 mph76%30.18 "HgN/A
9:25 PM41 °FQuite cool.8 mph76%30.15 "HgN/A
Weather by CustomWeather, © 2014

See weather overviewHow to use our weather pages